Location: *
(46.3500°N, 10.9000°E)
Time: 22:15:35
(UTC+00:00)

Explorer 7 - Pass Details

Date: 22 April 2021
Orbit: 484 x 677 km, 50.3° (Epoch: 05 May)

Event Time Altitude Azimuth Distance (km) Brightness Sun altitude
Rises 19:02:48 0° 244° (WSW) 2,612 10.8 -8.6°
Reaches altitude 10° 19:04:56 10° 244° (WSW) 1,753 9.9 -8.9°
Maximum altitude 19:08:55 86° 157° (SSE) 549 6.8 -9.5°
Drops below altitude 10° 19:13:11 10° 67° (ENE) 1,872 9.2 -10.2°
Enters shadow 19:15:19 - 67° (ENE) 2,722 10.0 -10.5°
Sets 19:15:32 0° 67° (ENE) 2,809 - -10.5°
